Date,TemperatureHighF,TemperatureAvgF,TemperatureLowF,DewpointHighF,DewpointAvgF,DewpointLowF,HumidityHigh,HumidityAvg,HumidityLow,PressureMaxIn,PressureMinIn,WindSpeedMaxMPH,WindSpeedAvgMPH,GustSpeedMaxMPH,PrecipitationSumIn
2013-1-1,42,39,36,31,30,27,77,69,63,30.04,29.93,15,3,15,0.00
2013-1-2,35,32,23,27,22,13,80,67,44,30.25,30.02,11,1,11,0.00
2013-1-3,40,31,15,24,19,12,88,64,45,30.27,30.15,28,3,28,0.00
2013-1-4,39,35,33,24,22,21,66,60,52,30.23,30.13,21,6,28,0.00
2013-1-5,44,36,31,28,24,21,84,62,43,30.40,30.17,18,2,18,0.00
2013-1-6,46,38,28,32,29,24,87,70,52,30.20,30.04,10,1,11,0.00
2013-1-7,41,36,23,32,26,20,88,69,55,30.46,30.18,15,2,15,0.00
2013-1-8,50,30,18,34,24,15,88,79,50,30.44,30.36,5,0,5,0.00
2013-1-9,52,38,24,44,31,20,88,78,56,30.43,30.25,14,2,16,0.00
2013-1-10,53,44,34,33,30,27,78,59,38,30.62,30.43,21,2,21,0.00
2013-1-11,47,42,39,41,34,30,87,76,58,30.48,30.11,7,1,7,0.12
2013-1-12,58,46,40,51,42,36,88,86,77,30.18,30.09,6,0,6,0.01
2013-1-13,57,49,42,52,45,39,88,86,83,30.10,29.94,6,1,6,0.00
2013-1-14,56,48,38,52,41,33,88,77,62,30.33,29.94,14,2,14,0.22
2013-1-15,40,38,34,35,34,30,88,85,77,30.37,30.18,7,1,7,0.46
2013-1-16,40,36,33,37,33,30,88,87,87,30.18,29.86,6,0,6,0.39
2013-1-17,42,38,33,36,31,26,88,76,56,30.16,30.01,14,2,14,0.01
2013-1-18,37,32,23,28,18,10,81,58,36,30.51,30.09,24,3,24,0.00
2013-1-19,58,41,23,30,25,18,87,56,29,30.37,29.91,11,2,11,0.00
2013-1-20,53,42,28,33,20,7,83,46,19,30.11,29.82,24,4,26,0.00
2013-1-21,43,31,24,21,17,9,74,55,32,30.11,29.83,23,3,23,0.00
2013-1-22,24,17,13,10,0,-4,63,46,37,30.32,29.99,24,6,26,0.00
2013-1-23,24,18,12,14,3,-1,80,51,36,30.37,30.15,17,3,17,0.00
2013-1-24,26,19,11,15,8,-2,87,64,40,30.56,30.12,15,2,18,0.00
2013-1-25,22,16,8,17,10,0,87,77,58,30.55,30.08,6,1,7,0.00
2013-1-26,33,25,15,26,20,12,88,82,64,30.47,30.10,11,1,11,0.01
2013-1-27,36,27,15,23,18,11,86,71,53,30.61,30.47,6,1,9,0.01
2013-1-28,44,36,29,40,32,22,87,85,74,30.47,30.06,5,0,5,0.13
2013-1-29,70,54,41,58,48,38,88,80,62,30.12,29.92,7,1,7,0.00
2013-1-30,71,56,46,61,52,42,87,85,69,29.92,29.23,10,1,19,1.26
2013-1-31,55,37,29,52,26,13,87,64,48,29.89,29.16,38,8,38,0.15
2013-2-1,28,23,16,24,11,4,88,61,47,30.41,29.84,22,4,23,0.00
2013-2-2,29,19,8,20,12,4,87,74,57,30.41,30.04,8,1,8,0.00
2013-2-3,36,28,22,29,22,15,88,80,61,30.04,29.82,22,2,22,0.01
2013-2-4,37,30,24,28,19,13,87,65,46,30.10,29.89,22,3,22,0.00
2013-2-5,37,33,30,34,30,27,88,87,87,29.95,29.86,6,0,6,0.06
2013-2-6,40,34,24,33,26,21,88,73,64,30.36,29.94,13,2,13,0.00
2013-2-7,39,31,22,28,24,20,88,77,60,30.44,30.21,11,2,11,0.00
2013-2-8,41,36,33,36,30,23,87,81,66,30.21,29.81,26,3,29,0.02
2013-2-9,40,32,21,23,19,15,80,59,40,30.41,29.98,29,5,32,0.00
2013-2-10,44,32,14,24,19,11,88,62,36,30.48,30.19,9,1,11,0.00
2013-2-11,67,50,36,52,36,23,87,64,25,30.19,29.67,25,3,25,0.18
2013-2-12,56,47,31,32,27,23,76,47,29,29.98,29.84,22,5,22,0.00
2013-2-13,43,33,24,34,28,21,87,82,59,29.95,29.68,9,1,9,0.03
2013-2-14,50,37,27,34,29,24,88,74,47,30.01,29.81,10,1,11,0.08
2013-2-15,55,38,26,37,31,23,88,78,47,30.05,29.95,10,1,13,0.05
2013-2-16,38,33,27,31,24,14,88,68,48,30.01,29.89,10,2,11,0.00
2013-2-17,28,25,22,19,12,7,81,59,43,30.25,29.89,23,6,23,0.00
2013-2-18,43,30,13,19,12,7,80,51,27,30.41,30.11,11,2,11,0.00
2013-2-19,54,39,26,42,29,19,86,67,48,30.11,29.67,24,4,27,0.06
2013-2-20,36,30,24,22,14,9,58,52,43,30.20,29.86,26,8,26,0.00
2013-2-21,37,28,24,18,15,11,77,58,44,30.36,30.16,18,3,18,0.00
2013-2-22,32,29,24,28,23,17,86,80,68,30.40,30.19,9,1,9,0.00
2013-2-23,50,38,32,41,33,28,87,83,70,30.19,29.85,7,1,8,0.00
2013-2-24,48,38,30,34,27,19,87,68,45,30.15,29.83,18,3,18,0.00
2013-2-25,47,34,24,25,22,19,83,62,39,30.23,30.15,8,1,8,0.00
2013-2-26,40,33,22,37,28,18,87,84,69,30.22,29.68,17,3,18,0.82
2013-2-27,53,43,37,42,35,34,88,75,52,29.70,29.59,14,3,20,0.03
2013-2-28,43,40,34,35,30,27,79,68,56,29.75,29.65,21,4,21,0.00
2013-3-1,41,38,33,31,28,24,73,68,55,29.93,29.75,15,3,15,0.00
2013-3-2,37,32,29,24,22,18,76,66,56,29.93,29.85,16,3,16,0.00
2013-3-3,37,32,29,23,20,18,72,60,47,29.97,29.85,15,5,24,0.00
2013-3-4,43,32,24,20,17,14,76,55,35,30.07,29.97,21,4,25,0.00
2013-3-5,48,38,24,30,21,15,86,55,32,30.09,29.82,13,3,17,0.00
2013-3-6,42,36,33,34,31,29,88,81,67,30.06,29.71,19,3,19,0.66
2013-3-7,47,41,37,30,29,27,73,63,50,30.21,30.06,15,4,15,0.01
2013-3-8,47,40,35,31,28,26,73,64,52,30.35,30.20,19,4,21,0.00
2013-3-9,59,41,25,31,26,21,87,59,23,30.40,30.26,7,1,7,0.00
2013-3-10,64,46,24,35,27,21,87,55,27,30.31,30.17,13,1,13,0.00
2013-3-11,59,50,39,49,37,24,79,63,36,30.19,29.84,11,2,14,0.00
2013-3-12,57,50,41,51,42,28,86,73,56,29.99,29.75,20,3,22,0.45
2013-3-13,47,38,28,33,25,20,85,60,37,30.09,29.92,27,4,27,0.01
2013-3-14,43,36,30,21,18,16,61,48,36,30.16,30.07,21,7,27,0.00
2013-3-15,58,44,29,36,27,20,72,53,37,30.13,29.79,18,3,18,0.00
2013-3-16,49,43,37,39,36,33,86,77,64,29.94,29.65,13,2,13,0.00
2013-3-17,40,37,33,33,28,24,87,72,56,30.26,29.93,11,2,12,0.00
2013-3-18,36,33,31,30,28,24,87,83,60,30.31,29.90,14,2,14,0.04
2013-3-19,56,43,33,37,24,10,88,53,19,29.95,29.75,25,6,28,0.30
2013-3-20,51,41,34,30,18,13,81,41,23,29.99,29.76,24,7,27,0.00
2013-3-21,35,30,26,27,15,9,73,53,37,29.93,29.81,18,4,20,0.00
2013-3-22,46,34,26,21,18,13,70,53,35,30.03,29.90,17,3,17,0.00
2013-3-23,53,38,19,28,22,16,86,57,31,30.05,29.93,17,2,17,0.00
2013-3-24,41,33,26,30,25,21,86,73,51,30.02,29.65,9,1,9,0.00
2013-3-25,39,34,32,34,31,29,88,87,82,29.73,29.54,5,0,5,0.55
2013-3-26,50,40,32,35,30,27,88,70,46,30.03,29.73,15,3,18,0.07
2013-3-27,47,41,36,32,29,26,73,63,44,30.15,30.02,19,5,19,0.00
2013-3-28,46,41,35,34,30,28,80,66,55,30.26,30.10,15,3,17,0.00
2013-3-29,55,44,30,35,30,26,86,59,33,30.27,30.15,15,2,15,0.00
2013-3-30,61,42,25,34,24,18,87,56,20,30.26,30.10,11,1,12,0.00
2013-3-31,47,40,31,43,35,22,87,83,63,30.11,29.76,9,0,9,0.19
2013-4-1,59,44,35,46,34,17,88,70,42,30.01,29.76,17,3,24,0.04
2013-4-2,47,39,28,20,17,13,69,42,27,30.19,30.01,17,4,19,0.00
2013-4-3,49,37,22,24,17,11,83,48,24,30.43,30.19,19,4,21,0.00
2013-4-4,50,36,18,27,16,12,84,49,22,30.43,30.06,11,1,12,0.00
2013-4-5,65,50,33,35,28,16,86,49,23,30.09,29.84,22,3,22,0.00
2013-4-6,57,45,29,27,22,17,76,42,22,30.33,30.09,13,2,13,0.00
2013-4-7,74,56,40,45,38,25,70,50,33,30.22,29.93,12,2,12,0.00
2013-4-8,80,65,45,51,46,40,83,54,29,30.07,29.89,12,1,12,0.00
2013-4-9,88,69,52,57,51,45,80,56,30,30.08,29.89,12,2,13,0.00
2013-4-10,91,73,54,60,54,48,82,55,29,29.95,29.74,23,3,25,0.00
2013-4-11,85,71,53,60,56,48,84,61,39,29.87,29.67,14,3,14,0.00
2013-4-12,71,60,53,62,52,38,86,77,40,29.79,29.56,16,4,20,0.50
2013-4-13,69,57,50,40,35,26,66,44,23,29.97,29.79,16,4,21,0.00
2013-4-14,69,53,34,42,36,30,86,56,28,30.16,29.97,10,1,11,0.00
2013-4-15,66,60,54,52,48,40,81,65,52,30.25,30.11,16,2,16,0.00
2013-4-16,78,65,56,62,56,50,85,73,56,30.26,30.06,10,2,12,0.23
2013-4-17,72,64,58,62,58,53,87,80,69,30.20,30.10,9,2,11,0.10
2013-4-18,76,66,60,64,58,55,85,76,63,30.20,29.92,11,2,12,0.00
2013-4-19,77,65,52,65,57,37,85,75,59,29.92,29.55,20,2,20,0.57
2013-4-20,59,50,42,38,30,25,64,46,31,30.37,29.79,20,6,23,0.00
2013-4-21,54,42,29,31,28,23,86,59,33,30.60,30.37,12,2,12,0.00
2013-4-22,58,45,30,38,32,26,86,63,41,30.58,30.39,14,3,18,0.00
2013-4-23,58,46,31,46,38,28,86,74,59,30.41,30.10,11,2,11,0.00
2013-4-24,78,57,36,60,47,32,87,73,43,30.10,29.72,19,2,22,0.08
2013-4-25,67,53,43,42,33,24,69,48,27,30.31,30.05,20,3,22,0.00
2013-4-26,68,50,35,40,36,29,86,60,26,30.47,30.31,13,2,13,0.00
2013-4-27,72,54,32,47,39,29,86,61,35,30.42,30.25,13,2,15,0.00
2013-4-28,59,50,40,50,44,36,86,80,56,30.26,30.12,6,1,9,0.18
2013-4-29,60,56,52,56,52,48,86,85,84,30.12,30.02,11,1,13,0.00
2013-4-30,59,56,54,55,52,50,86,86,84,30.29,30.10,11,2,11,0.04
2013-5-1,71,60,51,50,43,32,87,58,27,30.40,30.29,11,2,14,0.00
2013-5-2,70,57,38,50,44,34,86,65,40,30.43,30.30,10,2,16,0.00
2013-5-3,68,55,39,51,44,35,87,68,42,30.38,30.26,15,2,15,0.00
2013-5-4,68,55,38,50,42,34,86,65,41,30.33,30.16,15,2,15,0.00
2013-5-5,65,53,39,46,41,35,86,67,44,30.24,30.12,15,3,15,0.00
2013-5-6,59,52,42,55,48,38,86,84,73,30.18,30.05,11,2,11,0.04
2013-5-7,62,60,58,58,55,53,86,86,85,30.06,29.93,14,3,14,1.57
2013-5-8,70,57,50,58,52,46,87,83,60,30.00,29.92,8,0,10,0.21
2013-5-9,77,60,50,61,52,46,87,76,50,30.01,29.91,13,1,14,0.01
2013-5-10,84,64,49,64,56,45,87,76,41,30.01,29.85,13,1,14,0.54
2013-5-11,72,64,60,66,58,52,87,80,61,29.86,29.72,19,1,19,0.51
2013-5-12,61,56,44,53,37,27,85,52,32,30.03,29.77,14,3,18,0.00
2013-5-13,58,47,35,38,31,24,86,57,28,30.19,30.02,18,2,18,0.00
2013-5-14,65,48,29,45,34,26,87,62,32,30.24,30.02,8,1,10,0.00
2013-5-15,90,68,46,68,53,41,86,63,32,30.02,29.67,11,1,12,0.00
2013-5-16,78,72,64,66,59,54,84,65,49,29.93,29.74,11,2,17,0.05
2013-5-17,81,68,52,63,57,48,86,69,47,30.10,29.93,7,1,9,0.00
2013-5-18,68,63,59,61,56,52,85,79,59,30.20,30.09,9,1,9,0.00
2013-5-19,70,63,58,65,58,54,86,85,81,30.19,30.06,5,0,6,0.01
2013-5-20,83,71,64,71,64,59,86,79,61,30.09,29.95,8,1,13,0.01
2013-5-21,92,74,61,73,65,57,86,75,45,29.97,29.82,6,0,7,0.00
2013-5-22,89,73,63,73,64,58,85,75,46,29.92,29.78,14,0,16,0.67
2013-5-23,78,68,63,71,62,58,86,84,71,29.87,29.72,6,0,9,0.40
2013-5-24,64,54,45,59,44,32,87,71,53,30.22,29.75,25,3,25,0.01
2013-5-25,66,53,39,42,37,32,85,58,36,30.25,30.13,14,2,18,0.00
2013-5-26,72,58,44,45,39,35,85,52,26,30.24,30.14,13,2,15,0.00
2013-5-27,68,54,37,54,45,33,87,72,44,30.30,30.18,5,0,5,0.00
2013-5-28,79,64,51,69,57,47,87,81,67,30.20,30.03,6,1,8,0.07
2013-5-29,90,73,59,72,63,55,86,72,45,30.10,30.04,6,1,12,0.00
2013-5-30,89,75,61,73,65,56,86,72,47,30.17,30.07,9,0,9,0.00
2013-5-31,90,75,59,69,63,55,86,69,42,30.13,29.98,6,0,7,0.00
2013-6-1,90,76,63,72,66,58,86,71,49,30.02,29.86,5,0,9,0.00
2013-6-2,83,74,66,72,66,61,85,79,63,29.87,29.81,3,0,6,0.10
2013-6-3,79,70,59,68,62,53,86,75,61,29.98,29.83,9,1,9,0.21
2013-6-4,77,62,47,59,50,43,87,68,39,30.13,29.98,9,1,9,0.00
2013-6-5,78,64,47,63,54,43,87,73,50,30.17,30.01,10,1,10,0.00
2013-6-6,66,64,61,61,58,52,86,81,67,30.03,29.84,10,0,10,0.55
2013-6-7,68,66,64,64,61,59,86,85,84,29.84,29.64,7,1,7,0.26
2013-6-8,80,68,60,66,61,56,87,77,56,30.10,29.75,10,1,12,0.00
2013-6-9,79,69,58,69,62,54,86,80,66,30.18,30.07,9,1,9,0.00
2013-6-10,79,70,66,74,65,62,86,84,80,30.08,29.77,7,0,7,0.86
2013-6-11,79,70,62,69,63,57,87,80,66,29.85,29.78,12,1,12,0.00
2013-6-12,88,75,64,73,66,59,86,75,53,29.86,29.77,10,1,11,0.01
2013-6-13,83,70,67,72,64,55,87,79,64,29.77,29.49,21,2,21,0.41
2013-6-14,80,69,61,62,56,53,84,65,41,29.99,29.65,18,2,18,0.00
2013-6-15,83,68,54,63,56,50,86,68,36,30.09,29.98,6,1,11,0.00
2013-6-16,80,70,58,70,62,54,86,78,63,30.03,29.88,5,0,10,0.00
2013-6-17,87,75,62,72,66,58,86,75,51,29.95,29.86,6,0,6,0.00
2013-6-18,76,70,65,70,65,60,86,84,78,29.90,29.78,3,0,4,0.13
2013-6-19,78,68,58,65,60,54,87,77,54,30.14,29.89,6,1,7,0.01
2013-6-20,78,67,55,70,60,51,86,79,62,30.23,30.13,11,1,11,0.00
2013-6-21,82,70,56,68,61,51,86,73,56,30.28,30.19,10,1,10,0.00
2013-6-22,88,73,56,71,63,52,86,73,50,30.22,30.09,5,0,8,0.00
2013-6-23,88,74,61,75,66,56,86,77,57,30.17,30.04,5,0,7,0.00
2013-6-24,93,76,67,74,68,62,86,77,43,30.12,30.01,8,0,8,0.00
2013-6-25,94,79,65,75,68,60,86,71,46,30.02,29.86,11,1,16,0.02
2013-6-26,90,74,64,76,67,59,86,79,52,29.92,29.81,8,1,9,0.05
2013-6-27,85,73,66,75,67,60,86,82,70,29.82,29.61,8,1,10,1.29
2013-6-28,88,74,66,74,66,61,86,79,53,29.61,29.46,9,1,16,0.04
2013-6-29,87,74,63,72,64,58,86,75,47,29.70,29.51,7,0,9,0.07
2013-6-30,86,72,63,75,66,58,87,81,63,29.82,29.68,8,1,13,0.29
2013-7-1,82,74,67,74,68,62,86,82,71,29.94,29.82,6,0,9,0.04
2013-7-2,84,75,69,76,69,64,86,82,70,30.12,29.93,10,0,10,0.01
2013-7-3,83,75,70,76,70,64,86,83,74,30.20,30.11,7,0,7,0.01
2013-7-4,90,78,68,77,70,62,86,78,62,30.21,30.12,8,0,8,0.00
2013-7-5,90,79,67,77,70,62,86,75,57,30.19,30.07,7,1,9,0.00
2013-7-6,93,80,67,77,70,62,86,74,51,30.17,30.02,6,0,9,0.00
2013-7-7,89,74,67,77,67,62,86,80,59,30.08,29.97,18,0,18,0.46
2013-7-8,87,75,64,75,67,60,87,77,56,30.10,30.02,8,1,8,0.00
2013-7-9,86,75,67,76,69,62,86,83,67,30.10,29.97,5,0,5,0.09
2013-7-10,85,76,70,78,70,65,86,83,68,29.99,29.83,4,0,9,0.17
2013-7-11,83,75,68,72,68,64,86,78,62,29.92,29.84,8,0,8,0.00
2013-7-12,75,69,64,69,64,60,87,84,72,30.07,29.90,6,0,9,0.43
2013-7-13,82,73,66,74,67,61,87,82,69,30.24,30.05,6,0,7,0.00
2013-7-14,90,78,68,77,70,63,86,77,57,30.32,30.24,7,0,7,0.01
2013-7-15,93,79,65,78,70,60,86,75,51,30.30,30.18,8,0,8,0.00
2013-7-16,93,80,70,79,71,65,86,76,50,30.26,30.16,8,1,8,0.00
2013-7-17,95,82,72,78,73,67,86,74,50,30.22,30.08,6,1,8,0.00
2013-7-18,98,84,72,80,74,67,86,74,47,30.11,29.98,3,0,5,0.00
2013-7-19,99,82,72,80,72,67,86,74,47,30.00,29.84,14,1,14,0.00
2013-7-20,94,79,70,79,71,65,86,78,50,29.88,29.78,11,1,15,0.15
2013-7-21,89,75,68,75,68,63,86,80,59,29.94,29.87,8,0,8,0.04
2013-7-22,85,74,67,76,68,62,86,82,66,29.94,29.75,7,0,8,1.71
2013-7-23,87,76,70,74,68,65,87,78,57,29.76,29.65,12,1,12,0.04
2013-7-24,82,72,59,69,63,55,87,75,52,29.93,29.68,7,1,9,0.01
2013-7-25,78,65,54,63,56,50,87,73,49,30.06,29.93,9,1,9,0.00
2013-7-26,82,67,52,66,57,47,87,73,46,30.11,30.01,7,0,7,0.00
2013-7-27,81,69,58,73,63,53,87,83,71,30.03,29.89,5,0,9,0.03
2013-7-28,85,72,64,72,65,59,87,79,52,29.99,29.86,4,0,5,0.00
2013-7-29,82,68,53,62,57,49,87,70,42,30.17,29.99,8,1,8,0.00
2013-7-30,83,68,53,68,59,49,87,74,47,30.23,30.13,7,0,7,0.00
2013-7-31,79,67,58,70,62,54,87,82,70,30.15,29.99,8,0,8,0.00
2013-8-1,85,73,66,73,67,61,87,80,60,29.99,29.79,7,0,7,0.20
2013-8-2,85,72,60,69,62,56,87,72,43,29.96,29.87,9,1,10,0.01
2013-8-3,74,67,62,69,62,58,87,86,84,29.96,29.91,3,0,3,0.18
2013-8-4,80,67,56,65,58,52,88,74,45,30.05,29.94,8,1,11,0.01
2013-8-5,82,66,51,65,56,47,88,73,39,30.12,30.00,6,0,7,0.00
2013-8-6,78,67,60,69,62,56,87,83,70,30.05,29.99,5,0,9,0.64
2013-8-7,83,73,68,74,68,63,87,84,74,30.05,29.95,8,0,9,0.34
2013-8-8,83,73,66,77,68,61,87,84,75,30.01,29.93,4,0,5,0.15
2013-8-9,84,76,71,78,71,66,86,84,74,29.96,29.86,9,0,9,0.12
2013-8-10,85,73,66,72,65,61,87,78,54,30.07,29.95,5,0,5,0.01
2013-8-11,85,73,63,74,66,58,87,79,60,30.10,29.98,8,0,8,0.00
2013-8-12,88,76,63,73,66,58,87,75,49,30.02,29.89,8,0,9,0.00
2013-8-13,85,73,67,74,67,60,87,81,60,29.89,29.73,9,1,9,0.44
2013-8-14,73,63,50,60,53,47,88,70,52,30.12,29.85,11,2,13,0.00
2013-8-15,78,61,46,58,51,42,88,73,42,30.20,30.10,6,0,6,0.00
2013-8-16,79,63,46,62,54,42,88,73,46,30.20,30.12,8,1,8,0.00
2013-8-17,78,65,49,65,57,45,88,75,55,30.27,30.20,8,1,10,0.00
2013-8-18,67,63,60,63,59,56,88,87,85,30.26,30.17,5,0,5,0.22
2013-8-19,77,66,58,71,61,54,88,85,78,30.18,30.05,7,0,7,0.10
2013-8-20,86,72,63,71,63,59,88,76,47,30.17,30.09,6,0,6,0.00
2013-8-21,88,73,59,77,66,54,88,81,62,30.20,30.05,6,0,7,0.00
2013-8-22,87,76,67,74,67,62,88,75,57,30.08,29.92,7,1,8,0.00
2013-8-23,72,67,60,68,63,56,88,85,80,30.13,29.94,5,0,6,0.45
2013-8-24,81,67,57,66,58,53,89,75,40,30.34,30.13,7,0,7,0.01
2013-8-25,82,66,51,68,58,47,88,77,47,30.41,30.24,6,0,7,0.00
2013-8-26,88,71,56,71,62,52,88,74,49,30.27,29.99,9,1,9,0.00
2013-8-27,86,77,69,76,70,64,87,79,66,29.99,29.87,9,1,10,0.00
2013-8-28,75,72,69,70,67,64,87,84,84,29.91,29.80,4,0,6,0.37
2013-8-29,85,75,66,74,68,62,88,80,58,30.01,29.84,8,1,8,0.01
2013-8-30,89,74,63,75,66,58,88,77,51,30.01,29.84,8,0,8,0.00
2013-8-31,89,77,66,77,69,61,88,79,58,29.86,29.76,7,0,7,0.01
2013-9-1,90,76,64,77,68,60,88,78,56,29.83,29.74,7,0,10,0.00
2013-9-2,91,78,67,74,69,62,88,76,51,29.79,29.70,10,1,10,0.00
2013-9-3,83,72,60,68,62,56,88,71,43,29.99,29.73,11,1,12,0.00
2013-9-4,84,66,52,62,55,48,89,70,34,30.10,29.99,7,1,8,0.00
2013-9-5,82,67,54,65,56,50,89,70,43,30.14,30.03,13,1,13,0.00
2013-9-6,75,59,44,56,49,40,89,71,39,30.27,30.13,7,1,8,0.00
2013-9-7,84,63,45,60,51,41,89,70,26,30.16,29.94,7,1,10,0.00
2013-9-8,88,72,58,70,63,54,88,74,50,30.05,29.88,12,1,13,0.00
2013-9-9,77,66,57,65,58,51,88,75,55,30.20,30.05,7,0,8,0.00
2013-9-10,95,76,60,76,67,56,88,75,49,30.16,30.05,7,0,7,0.00
2013-9-11,96,80,68,78,70,63,88,74,48,30.13,29.97,7,0,8,0.00
2013-9-12,94,77,68,75,68,63,88,74,42,29.98,29.72,11,1,15,0.00
2013-9-13,77,67,58,64,56,47,88,70,39,29.97,29.72,14,2,17,0.01
2013-9-14,69,56,45,48,45,42,89,68,43,30.18,29.96,13,2,14,0.00
2013-9-15,78,59,41,59,50,38,90,74,44,30.23,30.06,11,0,11,0.00
2013-9-16,72,61,54,60,55,50,89,81,57,30.25,30.02,10,1,10,0.10
2013-9-17,69,56,41,50,44,38,90,69,37,30.44,30.25,7,1,10,0.00
2013-9-18,74,51,34,52,42,31,90,75,40,30.34,30.17,8,0,9,0.00
2013-9-19,77,59,44,61,51,41,89,77,54,30.19,30.06,6,0,6,0.00
2013-9-20,83,65,50,66,57,46,89,78,52,30.08,29.92,8,0,11,0.00
2013-9-21,72,64,59,65,59,54,88,86,78,29.92,29.66,11,0,12,0.67
2013-9-22,73,60,49,59,52,45,89,76,53,29.98,29.74,11,1,11,0.01
2013-9-23,66,55,43,49,46,40,89,72,50,30.11,29.97,9,1,13,0.00
2013-9-24,74,53,36,54,44,33,89,76,40,30.15,29.96,7,0,7,0.00
2013-9-25,75,55,39,55,45,35,90,74,38,30.02,29.89,5,0,6,0.01
2013-9-26,76,55,42,55,47,38,89,76,43,30.09,29.95,7,0,7,0.00
2013-9-27,74,56,43,59,49,39,89,80,58,30.23,30.09,7,0,8,0.00
2013-9-28,66,56,46,58,50,42,89,81,63,30.32,30.23,5,0,6,0.00
2013-9-29,73,55,41,57,47,38,89,77,46,30.23,30.06,8,0,8,0.00
2013-9-30,79,58,42,58,49,38,89,75,44,30.10,29.97,7,0,8,0.00
2013-10-1,83,64,52,63,56,48,89,76,45,30.08,29.97,9,1,9,0.00
2013-10-2,87,69,54,65,58,50,89,71,42,30.08,30.00,10,1,12,0.00
2013-10-3,85,67,54,66,59,50,89,77,49,30.13,30.02,6,0,7,0.00
2013-10-4,87,70,58,69,61,53,89,76,48,30.10,30.00,6,0,8,0.00
2013-10-5,89,72,60,69,62,56,89,73,46,30.09,29.97,6,0,7,0.00
2013-10-6,91,73,57,68,61,53,88,69,38,30.00,29.85,10,1,12,0.00
2013-10-7,73,63,52,66,57,45,89,80,60,30.08,29.70,14,1,14,1.26
2013-10-8,68,55,42,51,46,38,89,73,46,30.30,30.08,11,1,11,0.00
2013-10-9,61,50,40,51,44,37,90,79,57,30.37,30.27,8,1,8,0.01
2013-10-10,55,53,51,51,49,47,89,86,86,30.27,30.05,4,0,6,1.37
2013-10-11,60,57,53,56,53,49,87,86,85,30.05,30.00,5,0,5,1.50
2013-10-12,64,61,58,61,57,53,89,87,85,30.19,30.02,8,1,11,0.22
2013-10-13,59,58,57,55,53,52,87,86,85,30.33,30.18,8,1,8,0.23
2013-10-14,66,58,54,59,54,51,90,85,75,30.35,30.23,5,0,5,0.00
2013-10-15,70,58,50,59,52,47,90,80,54,30.24,30.08,7,0,8,0.01
2013-10-16,71,58,45,62,53,41,90,84,68,30.08,29.90,6,0,6,0.00
2013-10-17,72,62,56,65,57,47,89,84,69,29.90,29.68,16,1,24,0.10
2013-10-18,66,56,41,48,44,38,90,66,42,30.02,29.86,13,2,18,0.01
2013-10-19,62,48,35,54,43,32,90,81,64,30.00,29.77,12,1,15,0.02
2013-10-20,63,49,36,41,38,33,90,69,38,30.10,29.93,13,2,14,0.01
2013-10-21,68,49,31,47,39,28,90,72,39,30.15,29.92,11,1,11,0.00
2013-10-22,60,48,38,50,40,32,90,75,39,29.93,29.84,13,1,13,0.00
2013-10-23,49,41,31,41,35,28,90,80,64,29.93,29.72,13,1,13,0.00
2013-10-24,48,40,34,38,33,30,90,77,51,30.16,29.93,13,2,18,0.00
2013-10-25,51,38,29,36,30,26,90,75,49,30.34,30.15,14,2,15,0.00
2013-10-26,56,41,25,36,29,23,91,66,37,30.33,29.94,15,1,18,0.01
2013-10-27,59,48,33,39,34,30,89,61,37,30.15,29.98,13,2,15,0.00
2013-10-28,61,42,26,42,34,24,90,75,44,30.30,30.15,7,1,9,0.00
2013-10-29,61,45,30,43,37,27,90,76,48,30.42,30.30,6,0,7,0.00
2013-10-30,67,53,43,55,47,40,90,81,62,30.32,30.13,6,0,6,0.02
2013-10-31,69,60,53,61,55,49,90,84,72,30.16,29.69,5,0,9,0.05
2013-11-1,73,62,47,62,52,44,89,72,38,29.69,29.50,18,2,21,0.20
2013-11-2,62,51,41,49,42,37,90,73,45,29.90,29.66,18,2,23,0.00
2013-11-3,56,47,30,40,32,21,86,60,26,30.47,29.90,11,2,13,0.00
2013-11-4,43,35,23,28,25,21,90,69,46,30.66,30.47,7,1,8,0.00
2013-11-5,52,40,28,41,33,25,90,76,51,30.64,30.44,6,0,6,0.00
2013-11-6,71,56,43,53,47,40,90,76,49,30.45,30.00,9,1,11,0.00
2013-11-7,61,53,41,53,43,24,89,70,48,30.09,29.85,21,3,21,0.01
2013-11-8,50,40,27,30,27,23,87,60,39,30.33,30.08,20,3,20,0.00
2013-11-9,57,39,24,34,28,22,90,69,38,30.35,30.03,10,1,12,0.00
2013-11-10,58,45,31,39,30,-100,90,60,36,30.26,30.00,21,4,22,0.00
2013-11-11,59,45,31,36,31,27,88,61,33,30.30,30.01,7,1,9,0.00
2013-11-12,53,38,28,40,25,16,83,59,40,30.44,29.99,20,3,21,0.00
2013-11-13,43,35,28,23,20,16,68,56,35,30.52,30.39,14,3,17,0.00
2013-11-14,59,37,24,23,18,9,79,52,15,30.39,30.23,12,1,13,0.00
2013-11-15,62,42,21,36,24,17,90,57,18,30.29,30.17,7,0,7,0.00
2013-11-16,61,48,36,49,43,32,90,82,63,30.31,30.20,10,1,11,0.01
2013-11-17,64,57,50,57,53,47,90,86,76,30.21,29.65,8,1,10,0.01
2013-11-18,63,57,47,59,35,26,87,44,26,29.96,29.66,26,6,29,0.01
2013-11-19,47,40,28,29,26,23,83,58,44,30.41,29.95,21,3,21,0.00
2013-11-20,45,33,21,29,22,18,90,67,37,30.58,30.40,11,2,13,0.00
2013-11-21,48,36,24,39,31,21,90,82,68,30.59,30.37,7,1,7,0.02
2013-11-22,59,50,40,53,44,36,89,80,68,30.38,30.03,15,1,19,0.00
2013-11-23,52,39,28,44,26,12,82,60,42,30.26,30.07,22,4,29,0.00
2013-11-24,29,25,20,13,8,3,62,48,39,30.55,30.26,23,6,25,0.00
2013-11-25,38,27,14,19,11,8,80,53,29,30.57,30.31,10,1,10,0.00
2013-11-26,36,34,32,31,28,16,90,78,48,30.31,29.67,8,1,9,1.29
2013-11-27,38,35,28,35,29,15,91,79,59,30.09,29.59,23,4,24,0.05
2013-11-28,35,30,26,24,18,13,83,63,50,30.49,30.09,20,3,20,0.01
2013-11-29,40,30,19,28,22,17,90,75,50,30.74,30.47,12,1,13,0.01
2013-11-30,35,25,14,25,19,12,91,80,62,30.75,30.38,8,1,8,0.00
2013-12-1,39,29,16,30,24,14,91,81,67,30.38,30.04,4,0,4,0.00
2013-12-2,45,38,34,34,32,29,88,79,64,30.04,29.88,5,0,6,0.00
2013-12-3,53,38,30,40,33,28,90,81,59,30.00,29.89,6,0,6,0.00
2013-12-4,55,41,28,45,36,25,90,83,65,30.10,29.99,7,1,7,0.00
2013-12-5,71,51,36,58,46,32,90,84,63,30.06,29.90,10,0,11,0.06
2013-12-6,55,44,36,51,40,33,90,88,86,30.20,29.86,11,1,11,2.08
2013-12-7,38,35,26,33,28,21,91,78,65,30.56,30.17,15,2,15,0.00
2013-12-8,28,25,24,25,22,19,91,86,75,30.59,30.33,5,1,5,0.00
2013-12-9,36,32,28,33,29,25,91,89,88,30.34,30.05,5,0,5,0.18
2013-12-10,37,33,27,33,26,17,91,78,55,30.23,30.01,22,3,23,0.11
2013-12-11,38,28,20,23,17,14,89,64,38,30.40,30.22,20,2,20,0.03
2013-12-12,35,26,22,24,12,5,71,53,36,30.45,30.25,17,4,19,0.00
2013-12-13,42,30,18,24,16,8,84,57,37,30.32,30.22,14,2,14,0.04
2013-12-14,34,32,28,31,28,23,90,88,78,30.33,29.77,9,1,10,0.17
2013-12-15,41,35,32,35,28,22,91,77,63,29.95,29.66,24,4,27,0.31
2013-12-16,36,32,28,26,25,22,85,74,63,30.19,29.95,17,2,18,0.01
2013-12-17,38,32,28,33,28,25,91,86,78,30.15,29.93,7,1,8,0.05
2013-12-18,37,32,22,27,23,19,91,70,56,30.23,30.02,17,3,19,0.00
2013-12-19,59,34,18,37,26,15,91,74,40,30.20,30.06,12,1,13,0.00
2013-12-20,57,43,31,38,32,28,90,69,38,30.10,29.96,5,0,6,0.00
2013-12-21,69,57,40,60,48,36,89,73,55,29.99,29.82,8,1,16,0.00
2013-12-22,70,62,56,63,58,53,89,84,74,29.95,29.73,15,2,19,0.12
2013-12-23,57,49,35,54,43,25,90,79,65,30.26,29.88,19,2,19,0.30
2013-12-24,36,30,21,26,19,8,81,63,43,30.51,30.23,21,4,24,0.00
2013-12-25,31,24,17,17,13,9,78,62,48,30.60,30.35,10,1,10,0.00
2013-12-26,43,32,22,27,20,14,79,63,43,30.37,30.24,18,2,21,0.00
2013-12-27,49,35,21,26,20,14,88,59,24,30.42,30.31,16,2,16,0.00
2013-12-28,59,38,22,32,25,19,89,65,28,30.34,30.11,11,1,12,0.00
2013-12-29,48,42,35,44,38,29,90,84,67,30.11,29.59,15,2,18,1.15
2013-12-30,46,38,29,40,30,21,86,72,67,30.18,29.82,24,3,24,0.01
2013-12-31,40,31,23,29,21,17,90,68,47,30.33,30.13,23,3,26,0.00
2014-1-1,49,33,23,28,24,18,87,71,37,30.40,30.13,7,1,8,0.00
2014-1-2,32,29,24,28,26,21,90,87,81,30.12,29.68,7,1,8,0.00